{"data":{"norad_id":58545,"intl_designator":"2023-192Q","name":"STARLINK-31057","alt_names":[],"object_type":"PAYLOAD","status":"ACTIVE","operator":null,"country":"US","launch_date":"2023-12-08","launch_site_code":"AFWTR","launch_vehicle":null,"mission":null,"orbit_class":"UNKNOWN","rcs_meters":null,"size_class":null,"mass_kg":null,"dimensions":null,"purposes":["comms"],"wikipedia_slug":null,"has_3d_model":false,"image_url":null,"decayed_at":null,"tle_current":{"epoch":"2026-09-20T07:44:16.328544Z","epoch_age_seconds":162137,"freshness":"FRESH","line1":"1 58545U 23192Q   26263.32241121  .00001374  00000+0  51803-4 0  9994","line2":"2 58545  53.1579 234.4995 0001696  81.9030 278.2165 15.34391663155843","mean_motion":15.34391663,"eccentricity":0.0001696,"inclination_deg":53.1579,"raan_deg":234.4995,"arg_perigee_deg":81.903,"mean_anomaly_deg":278.2165,"bstar":5.1803e-5,"rev_number":15584,"period_min":93.848267995966,"perigee_km":461.56780893291,"apogee_km":463.88823034758,"semimajor_km":6840.8650196402,"source":"CELESTRAK","updated_at":"2026-09-21T09:00:33.914984Z"}}}